| time (UTC) | temp C | wind direction | speed KPH | gust KPH | rain 1hr cm | rain 24hr cm | rain mn cm | humidity % | barometer mb |
| 20260502223059 | 18 | 247 | 1.6 | 14.5 | 0.00 | 0.00 | 0.00 | 33 | 1011.3 |
| 20260502221548 | 18 | 0 | 0.0 | 11.3 | 0.00 | 0.00 | 0.00 | 33 | 1011.3 |
| 20260502220055 | 18 | 0 | 1.6 | 11.3 | 0.00 | 0.00 | 0.00 | 34 | 1011.5 |
| 20260502214610 | 18 | 0 | 3.2 | 14.5 | 0.00 | 0.00 | 0.00 | 33 | 1011.6 |
| 20260502213104 | 18 | 248 | 4.8 | 14.5 | 0.00 | 0.00 | 0.00 | 33 | 1011.9 |
| 20260502211552 | 18 | 231 | 8.0 | 14.5 | 0.00 | 0.00 | 0.00 | 33 | 1012.1 |
| 20260502210050 | 18 | 289 | 3.2 | 16.1 | 0.00 | 0.00 | 0.00 | 33 | 1012.4 |
| 20260502204545 | 18 | 252 | 3.2 | 9.7 | 0.00 | 0.00 | 0.00 | 35 | 1012.7 |
| 20260502203109 | 18 | 245 | 4.8 | 16.1 | 0.00 | 0.00 | 0.00 | 32 | 1013.0 |
| 20260502201546 | 17 | 182 | 3.2 | 17.7 | 0.00 | 0.00 | 0.00 | 33 | 1013.3 |
| 20260502200055 | 17 | 0 | 3.2 | 14.5 | 0.00 | 0.00 | 0.00 | 33 | 1013.8 |
| 20260502194551 | 17 | 0 | 3.2 | 19.3 | 0.00 | 0.00 | 0.00 | 34 | 1014.1 |
| 20260502193048 | 16 | 216 | 1.6 | 19.3 | 0.00 | 0.00 | 0.00 | 36 | 1014.2 |
| 20260502191549 | 16 | 278 | 4.8 | 17.7 | 0.00 | 0.00 | 0.00 | 34 | 1014.7 |
| 20260502190051 | 16 | 0 | 4.8 | 16.1 | 0.00 | 0.00 | 0.00 | 34 | 1015.0 |
| 20260502184546 | 15 | 216 | 1.6 | 22.5 | 0.00 | 0.00 | 0.00 | 36 | 1015.1 |
| 20260502183048 | 15 | 200 | 3.2 | 12.9 | 0.00 | 0.00 | 0.00 | 35 | 1015.4 |
| 20260502181548 | 15 | 210 | 3.2 | 14.5 | 0.00 | 0.00 | 0.00 | 36 | 1015.7 |
| 20260502163104 | 13 | 0 | 0.0 | 11.3 | 0.00 | 0.00 | 0.00 | 38 | 1017.3 |
| 20260502161604 | 12 | 94 | 3.2 | 14.5 | 0.00 | 0.00 | 0.00 | 40 | 1017.6 |
| 20260502151555 | 11 | 243 | 0.0 | 8.0 | 0.00 | 0.00 | 0.00 | 46 | 1018.1 |
| 20260502123110 | 3 | 0 | 0.0 | 1.6 | 0.00 | 0.00 | 0.00 | 73 | 1018.8 |
| 20260502121544 | 2 | 0 | 0.0 | 1.6 | 0.00 | 0.00 | 0.00 | 74 | 1018.6 |
| 20260502114544 | 2 | 0 | 0.0 | 1.6 | 0.00 | 0.00 | 0.00 | 75 | 1018.4 |
| 20260502113053 | 1 | 0 | 0.0 | 0.0 | 0.00 | 0.00 | 0.00 | 75 | 1018.4 |
| 20260502111551 | 1 | 0 | 0.0 | 0.0 | 0.00 | 0.00 | 0.00 | 75 | 1018.3 |
| 20260502110051 | 1 | 0 | 0.0 | 0.0 | 0.00 | 0.00 | 0.00 | 74 | 1018.2 |
| 20260502104548 | 1 | 0 | 0.0 | 0.0 | 0.00 | 0.00 | 0.00 | 74 | 1018.2 |
| 20260502103044 | 1 | 0 | 0.0 | 0.0 | 0.00 | 0.00 | 0.00 | 73 | 1018.2 |
| 20260502101542 | 1 | 0 | 0.0 | 0.0 | 0.00 | 0.00 | 0.00 | 74 | 1018.1 |
| 20260502070105 | 3 | 0 | 0.0 | 0.0 | 0.00 | 0.00 | 0.00 | 67 | 1018.5 |
| 20260502064553 | 3 | 0 | 0.0 | 0.0 | 0.00 | 0.00 | 0.00 | 68 | 1018.5 |
| 20260502063053 | 3 | 0 | 0.0 | 0.0 | 0.00 | 0.00 | 0.00 | 68 | 1018.5 |
| 20260502061550 | 3 | 0 | 0.0 | 0.0 | 0.00 | 0.00 | 0.00 | 66 | 1018.5 |
| 20260502060052 | 3 | 0 | 0.0 | 0.0 | 0.00 | 0.00 | 0.00 | 66 | 1018.6 |
| 20260502054548 | 3 | 0 | 0.0 | 0.0 | 0.00 | 0.00 | 0.00 | 66 | 1018.6 |
| 20260502053053 | 4 | 0 | 0.0 | 0.0 | 0.00 | 0.00 | 0.00 | 63 | 1018.7 |
| 20260502051602 | 4 | 0 | 0.0 | 0.0 | 0.00 | 0.00 | 0.00 | 61 | 1018.6 |
| 20260502050056 | 3 | 0 | 0.0 | 0.0 | 0.00 | 0.00 | 0.00 | 66 | 1018.6 |
| 20260502044549 | 3 | 0 | 0.0 | 0.0 | 0.00 | 0.00 | 0.00 | 63 | 1018.5 |
| 20260502043053 | 3 | 0 | 0.0 | 0.0 | 0.00 | 0.00 | 0.00 | 60 | 1018.5 |
| 20260502041549 | 3 | 0 | 0.0 | 0.0 | 0.00 | 0.00 | 0.00 | 60 | 1018.5 |
| 20260502040105 | 4 | 0 | 0.0 | 0.0 | 0.00 | 0.00 | 0.00 | 56 | 1018.4 |
| 20260502034551 | 5 | 0 | 0.0 | 0.0 | 0.00 | 0.00 | 0.00 | 55 | 1018.6 |
| 20260502033051 | 6 | 0 | 0.0 | 0.0 | 0.00 | 0.00 | 0.00 | 59 | 1018.6 |
| 20260502031553 | 5 | 0 | 0.0 | 0.0 | 0.00 | 0.00 | 0.00 | 57 | 1018.8 |
| 20260502030051 | 5 | 0 | 0.0 | 0.0 | 0.00 | 0.00 | 0.00 | 56 | 1018.8 |
| 20260502024551 | 6 | 0 | 0.0 | 0.0 | 0.00 | 0.00 | 0.00 | 52 | 1018.8 |
| 20260502023048 | 6 | 0 | 0.0 | 0.0 | 0.00 | 0.00 | 0.00 | 50 | 1018.6 |
| 20260502021549 | 7 | 0 | 0.0 | 0.0 | 0.00 | 0.00 | 0.00 | 48 | 1018.6 |
| 20260502020056 | 7 | 0 | 0.0 | 0.0 | 0.00 | 0.00 | 0.00 | 47 | 1018.4 |
| 20260502014549 | 8 | 0 | 0.0 | 0.0 | 0.00 | 0.00 | 0.00 | 42 | 1018.3 |
| 20260502013048 | 9 | 0 | 0.0 | 0.0 | 0.00 | 0.00 | 0.00 | 40 | 1018.1 |
| 20260502011551 | 10 | 0 | 0.0 | 1.6 | 0.00 | 0.00 | 0.00 | 38 | 1018.1 |
| 20260502010050 | 10 | 0 | 0.0 | 0.0 | 0.00 | 0.00 | 0.00 | 36 | 1018.1 |
| 20260502004547 | 10 | 0 | 0.0 | 0.0 | 0.00 | 0.00 | 0.00 | 36 | 1018.0 |
| 20260502003046 | 11 | 0 | 0.0 | 1.6 | 0.00 | 0.00 | 0.00 | 36 | 1018.0 |
| 20260502001557 | 11 | 0 | 0.0 | 6.4 | 0.00 | 0.00 | 0.00 | 35 | 1018.0 |
| 20260502000054 | 10 | 0 | 0.0 | 0.0 | 0.00 | 0.00 | 0.00 | 35 | 1018.0 |
| 20260501234544 | 10 | 0 | 0.0 | 8.0 | 0.00 | 0.00 | 0.00 | 37 | 1018.1 |
| 20260501233047 | 10 | 0 | 0.0 | 6.4 | 0.00 | 0.00 | 0.00 | 37 | 1018.0 |
| 20260501231554 | 10 | 0 | 0.0 | 0.0 | 0.00 | 0.00 | 0.00 | 35 | 1017.9 |
| 20260501230050 | 10 | 0 | 1.6 | 11.3 | 0.00 | 0.00 | 0.00 | 35 | 1018.1 |
| 20260501224548 | 11 | 0 | 1.6 | 12.9 | 0.00 | 0.00 | 0.00 | 34 | 1018.1 |